KF6ILA Weather Reports


time (UTC)temp
F
wind
direction
speed
knots
gust
knots
rain 1hr
in
rain 24hr
in
rain mn
in
humidity
%
barometer
mb
20260503222628 52 268 16.5 28.7 0.00 0.00 0.00 89 1010.4
20260503222131 53 265 18.2 27.8 0.00 0.00 0.00 88 1010.3
20260503221858 53 270 19.1 27.8 0.00 0.00 0.00 87 1010.5
20260503221634 53 270 19.1 27.8 0.00 0.00 0.00 87 1010.5
20260503221218 54 262 18.2 25.2 0.00 0.00 0.00 88 1010.5
20260503221137 54 262 18.2 25.2 0.00 0.00 0.00 88 1010.5
20260503220640 54 270 15.6 25.2 0.00 0.00 0.00 88 1010.3
20260503220318 54 264 20.0 26.1 0.00 0.00 0.00 87 1010.5
20260503220143 54 264 20.0 26.1 0.00 0.00 0.00 87 1010.5
20260503215731 54 269 20.0 26.1 0.00 0.00 0.00 86 1010.5
20260503215646 54 269 20.0 26.1 0.00 0.00 0.00 86 1010.5
20260503215235 54 265 17.4 26.1 0.00 0.00 0.00 86 1010.4
20260503215149 54 265 17.4 26.1 0.00 0.00 0.00 86 1010.4
20260503214831 55 277 18.2 26.1 0.00 0.00 0.00 86 1010.3
20260503214652 55 277 18.2 26.1 0.00 0.00 0.00 86 1010.3
20260503214231 55 269 17.4 25.2 0.00 0.00 0.00 87 1010.4
20260503214155 55 269 17.4 25.2 0.00 0.00 0.00 87 1010.4
20260503213917 54 275 17.4 26.1 0.00 0.00 0.00 85 1010.5
20260503213658 54 275 17.4 26.1 0.00 0.00 0.00 85 1010.5
20260503213301 54 270 19.1 26.1 0.00 0.00 0.00 86 1010.6
20260503213200 54 270 19.1 26.1 0.00 0.00 0.00 86 1010.6
20260503212703 55 272 14.8 23.5 0.00 0.00 0.00 87 1010.6
20260503211710 54 281 13.9 24.3 0.00 0.00 0.00 87 1010.7
20260503210715 54 268 13.0 20.0 0.00 0.00 0.00 87 1010.7
20260503210219 54 278 12.2 20.0 0.00 0.00 0.00 89 1010.9
20260503205722 54 261 13.9 20.9 0.00 0.00 0.00 89 1010.8
20260503205306 54 264 12.2 22.6 0.00 0.00 0.00 89 1011.0
20260503205224 54 264 12.2 22.6 0.00 0.00 0.00 89 1011.0
20260503203734 53 269 11.3 20.0 0.00 0.00 0.00 93 1010.8
20260503203400 52 289 13.0 20.0 0.00 0.00 0.00 93 1010.7
20260503203237 52 289 13.0 20.0 0.00 0.00 0.00 93 1010.7
20260503202740 52 289 13.0 18.2 0.00 0.00 0.00 93 1010.8
20260503202243 52 277 10.4 20.0 0.00 0.00 0.00 94 1011.2
20260503201746 52 286 12.2 20.0 0.00 0.00 0.00 94 1011.2
20260503201249 52 301 13.9 18.2 0.00 0.00 0.00 94 1011.0
20260503200752 52 297 11.3 19.1 0.00 0.00 0.00 93 1011.1
20260503200336 52 296 13.9 19.1 0.00 0.00 0.00 92 1011.9
20260503200255 52 296 13.9 19.1 0.00 0.00 0.00 92 1011.9
20260503195830 53 292 11.3 18.2 0.00 0.00 0.00 90 1011.8
20260503195758 53 292 11.3 18.2 0.00 0.00 0.00 90 1011.8
20260503194923 55 295 10.4 16.5 0.00 0.00 0.00 85 1011.9
20260503194804 55 295 10.4 16.5 0.00 0.00 0.00 85 1011.9
20260503193313 59 296 9.6 15.6 0.00 0.00 0.00 81 1011.8
20260503192934 59 311 9.6 15.6 0.00 0.00 0.00 81 1011.9
20260503192816 59 311 9.6 15.6 0.00 0.00 0.00 81 1011.9
20260503191822 61 321 9.6 17.4 0.00 0.00 0.00 75 1011.9
20260503191325 62 304 8.7 17.4 0.00 0.00 0.00 75 1012.0
20260503190418 63 279 9.6 17.4 0.00 0.00 0.00 71 1012.0
20260503190331 63 279 9.6 17.4 0.00 0.00 0.00 71 1012.0
20260503183349 67 243 9.6 18.2 0.00 0.00 0.00 45 1012.3
20260503182355 65 262 5.2 13.0 0.00 0.00 0.00 55 1012.1
20260503181858 64 262 6.1 12.2 0.00 0.00 0.00 61 1012.3
20260503180904 63 313 5.2 12.2 0.00 0.00 0.00 61 1012.4
20260503180407 64 273 7.0 13.0 0.00 0.00 0.00 65 1012.4
20260503175943 63 273 7.0 13.0 0.00 0.00 0.00 65 1012.3
20260503175910 63 273 7.0 13.0 0.00 0.00 0.00 65 1012.3
20260503175413 63 231 7.8 15.6 0.00 0.00 0.00 65 1012.3
20260503174916 63 263 7.0 15.6 0.00 0.00 0.00 68 1012.2
20260503174419 63 278 10.4 15.6 0.00 0.00 0.00 68 1012.2
20260503173922 63 284 7.8 12.2 0.00 0.00 0.00 69 1012.2
20260503172928 62 259 6.1 13.0 0.00 0.00 0.00 72 1012.1
20260503171934 63 287 10.4 14.8 0.00 0.00 0.00 69 1012.1
20260503130707 53 273 7.0 9.6 0.00 0.00 0.00 65 1010.2
20260503130210 54 266 5.2 7.8 0.00 0.00 0.00 63 1010.0
20260503110819 58 286 9.6 14.8 0.00 0.00 0.00 43 1010.6
20260503090434 61 269 7.8 9.6 0.00 0.00 0.00 30 1011.7
20260503081504 62 272 7.8 11.3 0.00 0.00 0.00 29 1012.2
20260503071043 62 258 7.8 11.3 0.00 0.00 0.00 30 1012.8
20260503070618 62 259 7.0 12.2 0.00 0.00 0.00 29 1012.8
20260503070546 62 259 7.0 12.2 0.00 0.00 0.00 29 1012.8
20260503060125 62 264 7.8 10.4 0.00 0.00 0.00 29 1013.1
20260503054634 63 272 7.8 12.2 0.00 0.00 0.00 29 1013.2
20260503051156 62 280 7.8 10.4 0.00 0.00 0.00 30 1013.0
20260503050658 62 280 7.8 10.4 0.00 0.00 0.00 31 1013.1
20260503050201 62 275 7.0 9.6 0.00 0.00 0.00 30 1013.1
20260503045207 61 277 7.0 8.7 0.00 0.00 0.00 31 1013.1
20260503044710 61 276 7.0 8.7 0.00 0.00 0.00 31 1013.0
20260503043219 61 277 6.1 9.6 0.00 0.00 0.00 32 1012.8
20260503042722 61 278 7.0 9.6 0.00 0.00 0.00 34 1012.7
20260503042226 61 274 6.1 8.7 0.00 0.00 0.00 34 1012.6
20260503041232 61 277 7.0 8.7 0.00 0.00 0.00 35 1012.6
20260503040734 61 275 7.0 8.7 0.00 0.00 0.00 36 1012.6
20260503040237 61 271 6.1 8.7 0.00 0.00 0.00 36 1012.5
20260503035740 60 275 6.1 8.7 0.00 0.00 0.00 35 1012.6
20260503033753 60 270 6.1 7.8 0.00 0.00 0.00 37 1012.2
20260503032304 61 269 5.2 7.0 0.00 0.00 0.00 41 1012.8
20260503031308 61 267 5.2 7.8 0.00 0.00 0.00 46 1012.8
20260503030811 61 265 6.1 7.8 0.00 0.00 0.00 46 1012.8
20260503030314 62 269 6.1 9.6 0.00 0.00 0.00 50 1012.6
20260503025817 62 271 6.1 9.6 0.00 0.00 0.00 53 1012.7
20260503025320 62 269 7.0 9.6 0.00 0.00 0.00 54 1012.7
20260503023829 62 263 7.8 10.4 0.00 0.00 0.00 57 1012.5
20260503023332 63 261 7.8 11.3 0.00 0.00 0.00 58 1012.5
20260503022834 63 265 8.7 11.3 0.00 0.00 0.00 61 1012.5
20260503021344 63 258 8.7 12.2 0.00 0.00 0.00 64 1012.3
20260503020350 64 256 7.8 12.2 0.00 0.00 0.00 68 1012.3
20260503015853 64 252 8.7 11.3 0.00 0.00 0.00 67 1012.3
20260503014858 65 260 7.8 13.0 0.00 0.00 0.00 63 1012.3
20260503011917 66 253 9.6 13.9 0.00 0.00 0.00 57 1012.2
20260503011420 67 256 8.7 13.9 0.00 0.00 0.00 56 1012.2
20260503010426 68 256 8.7 12.2 0.00 0.00 0.00 60 1012.2
20260503003941 70 256 7.8 13.9 0.00 0.00 0.00 55 1012.3
20260503003444 71 255 7.8 12.2 0.00 0.00 0.00 54 1012.3
20260503002450 71 267 8.7 13.0 0.00 0.00 0.00 49 1012.2
20260503001456 72 249 8.7 13.0 0.00 0.00 0.00 52 1012.2
20260503000502 72 279 7.8 12.2 0.00 0.00 0.00 50 1012.4
20260502233023 75 251 7.0 10.4 0.00 0.00 0.00 44 1012.4
20260502225544 73 287 6.1 12.2 0.00 0.00 0.00 43 1011.8
20260502224549 74 262 7.0 13.9 0.00 0.00 0.00
20260502224053 74 266 8.7 13.9 0.00 0.00 0.00 45 1012.1
20260502223556 74 270 7.8 13.0 0.00 0.00 0.00 41